Weather History for Hearne, TX

Change the Weather History Date:

Monday, December 9, 2013

  Actual Average (KCLL) Record (KCLL)
Temperature  
Mean Temperature 36 °F 53 °F  
Max Temperature 40 °F 63 °F 83 °F (2007)
Min Temperature 32 °F 43 °F 19 °F (1917)
Degree Days  
Heating Degree Days 28 12  
Month to date heating degree days 104  
Since 1 July heating degree days 329  
Cooling Degree Days 0 1  
Month to date cooling degree days 9  
Year to date cooling degree days 3082  
Moisture  
Dew Point 36 °F    
Average Humidity 93    
Maximum Humidity 96    
Minimum Humidity 83    
Precipitation  
Precipitation 0.02 in 0.11 in 1.85 in (2012)
Month to date precipitation 0.96  
Year to date precipitation 37.79  
Sea Level Pressure  
Sea Level Pressure 30.21 in    
Wind  
Wind Speed 6 mph (NNW)    
Max Wind Speed 18 mph    
Max Gust Speed 23 mph    
Visibility 4 miles    
Events Rain    
T = Trace of Precipitation, MM = Missing Value Source: NWS Daily Summary

Daily Weather History Graph

Daily Weather History Graph

Search for Another Location

Airport:

Trip Planner

Search our weather history database for the weather conditions in past years. The results will help you decide how hot, cold, wet, or windy it might be!

Date:

Astronomy

Dec. 09, 2013 Rise Set
Actual Time 7:12 AM CST 5:24 PM CST
Civil Twilight 6:46 AM CST 5:51 PM CST
Nautical Twilight 6:16 AM CST 6:21 PM CST
Astronomical Twilight 5:47 AM CST 6:50 PM CST
Moon 12:30 PM CST (12/9) No Moon Set
Length of Visible Light 11h 05m
Length of Day
10h 11m
Waxing Crescent, 51% of the Moon is Illuminated
Dec 9
Waxing Crescent
Dec 17
Full
Dec 25
Last Quarter
Jan 1
New
Jan 7
First Quarter

Hourly Weather History & Observations

Time (CST) Temp. Windchill Dew Point Humidity Pressure Visibility Wind Dir Wind Speed Gust Speed Precip Events Conditions
12:15 AM 40.1 °F - 37.8 °F 91% 30.14 in 5.0 mi Calm Calm - N/A   Overcast
12:35 AM 40.1 °F - 37.9 °F 92% 30.14 in 5.0 mi Calm Calm - N/A   Overcast
12:55 AM 39.7 °F - 37.8 °F 93% 30.14 in 5.0 mi Calm Calm - N/A   Overcast
1:15 AM 39.6 °F 36.3 °F 37.8 °F 93% 30.14 in 5.0 mi North 4.6 mph - N/A   Overcast
1:35 AM 39.4 °F 37.2 °F 37.6 °F 93% 30.13 in 4.0 mi North 3.5 mph - N/A   Overcast
1:55 AM 39.2 °F 35.9 °F 37.6 °F 94% 30.12 in 3.0 mi North 4.6 mph - N/A   Overcast
2:15 AM 39.2 °F 35.9 °F 37.8 °F 95% 30.12 in 2.5 mi NE 4.6 mph - N/A   Overcast
2:35 AM 39.2 °F 37.0 °F 37.6 °F 94% 30.11 in 2.5 mi NE 3.5 mph - N/A   Overcast
2:55 AM 39.2 °F 35.9 °F 37.9 °F 95% 30.12 in 2.0 mi NE 4.6 mph - N/A   Overcast
3:15 AM 39.2 °F 33.6 °F 37.8 °F 95% 30.10 in 1.8 mi NE 8.1 mph - N/A   Overcast
3:35 AM 39.2 °F 35.9 °F 37.8 °F 95% 30.11 in 2.0 mi NE 4.6 mph - N/A   Overcast
3:55 AM 38.8 °F 34.6 °F 37.6 °F 95% 30.13 in 2.0 mi NNE 5.8 mph - N/A   Overcast
4:35 AM 39.2 °F 37.0 °F 37.9 °F 95% 30.15 in 2.0 mi NE 3.5 mph - N/A   Overcast
4:55 AM 38.7 °F - 37.6 °F 96% 30.15 in 3.0 mi Calm Calm - N/A   Overcast
5:15 AM 39.0 °F - 37.6 °F 95% 30.15 in 2.5 mi Calm Calm - N/A   Overcast
5:35 AM 39.0 °F 34.8 °F 37.8 °F 95% 30.15 in 3.0 mi NNW 5.8 mph - N/A   Overcast
5:55 AM 38.8 °F 34.6 °F 37.6 °F 95% 30.15 in 2.5 mi North 5.8 mph - N/A   Overcast
6:15 AM 38.8 °F 33.2 °F 37.6 °F 95% 30.16 in 2.5 mi North 8.1 mph - N/A   Overcast
6:35 AM 38.7 °F 32.9 °F 37.4 °F 95% 30.16 in 4.0 mi North 8.1 mph - N/A   Overcast
6:55 AM 38.7 °F 31.8 °F 37.4 °F 95% 30.16 in 4.0 mi North 10.4 mph - N/A   Overcast
7:15 AM 38.5 °F 32.7 °F 37.0 °F 95% 30.17 in 4.0 mi North 8.1 mph - N/A   Overcast
7:35 AM 38.3 °F 32.5 °F 36.7 °F 94% 30.18 in 4.0 mi North 8.1 mph - N/A   Overcast
7:55 AM 38.5 °F 34.1 °F 37.0 °F 95% 30.18 in 4.0 mi North 5.8 mph - N/A   Overcast
8:15 AM 38.7 °F 36.3 °F 37.4 °F 95% 30.19 in 4.0 mi North 3.5 mph - N/A   Overcast
8:35 AM 38.5 °F 31.6 °F 37.0 °F 95% 30.19 in 3.0 mi North 10.4 mph - N/A   Overcast
8:55 AM 38.7 °F 32.9 °F 37.0 °F 94% 30.19 in 4.0 mi North 8.1 mph - N/A   Overcast
9:15 AM 38.5 °F 34.1 °F 36.9 °F 94% 30.20 in 4.0 mi North 5.8 mph - N/A   Overcast
9:35 AM 39.0 °F 32.8 °F 37.4 °F 94% 30.20 in 2.5 mi North 9.2 mph - N/A   Overcast
9:55 AM 38.8 °F 31.2 °F 37.4 °F 95% 30.20 in 2.5 mi North 12.7 mph 16.1 mph N/A   Overcast
10:15 AM 39.0 °F 33.4 °F 37.4 °F 94% 30.20 in 2.5 mi North 8.1 mph - N/A   Overcast
10:35 AM 39.2 °F 34.2 °F 37.6 °F 94% 30.20 in 2.5 mi North 6.9 mph - N/A   Overcast
10:55 AM 39.2 °F 33.0 °F 37.4 °F 93% 30.20 in 3.0 mi North 9.2 mph - N/A   Overcast
11:15 AM 39.4 °F 33.2 °F 37.4 °F 93% 30.19 in 3.0 mi North 9.2 mph - N/A   Overcast
11:35 AM 39.6 °F 34.0 °F 37.8 °F 93% 30.19 in 4.0 mi North 8.1 mph - N/A   Overcast
11:55 AM 39.6 °F 34.7 °F 37.6 °F 93% 30.18 in 4.0 mi North 6.9 mph - N/A   Overcast
12:15 PM 39.4 °F 33.2 °F 37.4 °F 93% 30.15 in 3.0 mi North 9.2 mph - N/A   Overcast
12:35 PM 39.4 °F 35.2 °F 37.6 °F 93% 30.16 in 4.0 mi North 5.8 mph - N/A   Overcast
12:55 PM 39.6 °F 34.7 °F 37.4 °F 92% 30.16 in 4.0 mi NNW 6.9 mph - N/A Rain Light Rain
1:15 PM 39.7 °F 34.9 °F 37.9 °F 93% 30.16 in 2.5 mi NNW 6.9 mph - 0.01 in   Light Drizzle
1:35 PM 39.6 °F 34.0 °F 37.8 °F 93% 30.16 in 2.5 mi NW 8.1 mph - 0.01 in   Overcast
1:55 PM 38.7 °F 32.4 °F 37.0 °F 94% 30.15 in 2.5 mi NW 9.2 mph - 0.01 in   Overcast
2:15 PM 38.7 °F 31.8 °F 36.9 °F 93% 30.17 in 2.5 mi NW 10.4 mph - N/A   Light Drizzle
2:35 PM 38.3 °F 31.4 °F 36.5 °F 93% 30.16 in 2.0 mi NW 10.4 mph - N/A   Light Drizzle
2:55 PM 38.1 °F 31.7 °F 36.5 °F 94% 30.17 in 2.5 mi NW 9.2 mph - 0.01 in   Light Drizzle
3:15 PM 38.5 °F 30.3 °F 36.9 °F 94% 30.17 in 3.0 mi NW 13.8 mph 18.4 mph N/A   Overcast
3:35 PM 38.3 °F 30.9 °F 36.5 °F 93% 30.18 in 3.0 mi NW 11.5 mph - N/A   Overcast
3:55 PM 38.3 °F 31.9 °F 36.3 °F 93% 30.18 in 4.0 mi NNW 9.2 mph - N/A   Overcast
4:15 PM 37.9 °F 32.1 °F 36.1 °F 93% 30.19 in 3.0 mi NW 8.1 mph - N/A   Overcast
4:35 PM 37.9 °F 31.5 °F 36.3 °F 94% 30.19 in 3.0 mi NNW 9.2 mph - N/A   Overcast
4:55 PM 37.4 °F 29.8 °F 35.6 °F 93% 30.20 in 5.0 mi NW 11.5 mph - N/A   Overcast
5:15 PM 36.9 °F 28.7 °F 35.2 °F 94% 30.21 in 5.0 mi NW 12.7 mph - N/A   Overcast
5:35 PM 36.5 °F 28.2 °F 34.7 °F 93% 30.22 in 7.0 mi NW 12.7 mph 19.6 mph N/A   Overcast
5:55 PM 36.1 °F 27.7 °F 34.5 °F 94% 30.23 in 5.0 mi NW 12.7 mph - N/A   Overcast
6:15 PM 36.0 °F 27.1 °F 34.2 °F 93% 30.24 in 7.0 mi NNW 13.8 mph 17.3 mph N/A   Overcast
6:35 PM 36.0 °F 28.0 °F 34.2 °F 93% 30.25 in 5.0 mi NNW 11.5 mph - N/A   Overcast
6:55 PM 36.0 °F 28.0 °F 34.2 °F 93% 30.26 in 7.0 mi NW 11.5 mph - N/A   Overcast
7:15 PM 35.4 °F 26.8 °F 33.6 °F 93% 30.27 in 7.0 mi NNW 12.7 mph 20.7 mph N/A   Overcast
7:35 PM 35.1 °F 25.9 °F 33.1 °F 92% 30.28 in 7.0 mi NNW 13.8 mph 23.0 mph N/A   Overcast
7:55 PM 34.7 °F 25.9 °F 32.5 °F 92% 30.29 in 7.0 mi NW 12.7 mph 21.9 mph N/A   Overcast
8:15 PM 34.7 °F 25.5 °F 32.5 °F 92% 30.30 in 7.0 mi NW 13.8 mph 19.6 mph N/A   Overcast
8:35 PM 34.5 °F 25.7 °F 32.2 °F 91% 30.32 in 5.0 mi NW 12.7 mph - N/A   Overcast
8:55 PM 34.2 °F 24.4 °F 32.0 °F 92% 30.33 in 7.0 mi NNW 15.0 mph 23.0 mph N/A   Overcast
9:15 PM 34.3 °F 23.5 °F 31.6 °F 90% 30.34 in 7.0 mi NW 18.4 mph - N/A   Overcast
9:35 PM 34.3 °F 25.9 °F 31.1 °F 88% 30.35 in 7.0 mi NW 11.5 mph 19.6 mph N/A   Overcast
9:55 PM 34.7 °F 25.5 °F 30.7 °F 85% 30.36 in 7.0 mi NNW 13.8 mph - N/A   Overcast
10:15 PM 34.7 °F 25.5 °F 30.4 °F 84% 30.37 in 7.0 mi NW 13.8 mph - N/A   Overcast
10:35 PM 34.0 °F 24.6 °F 29.3 °F 83% 30.38 in 7.0 mi NW 13.8 mph - N/A   Overcast
10:55 PM 33.8 °F 24.8 °F 29.3 °F 84% 30.38 in 7.0 mi NNW 12.7 mph 20.7 mph N/A   Mostly Cloudy
11:15 PM 34.2 °F 25.2 °F 29.5 °F 83% 30.39 in 7.0 mi NNW 12.7 mph 18.4 mph N/A   Mostly Cloudy
11:35 PM 33.3 °F 24.6 °F 29.1 °F 85% 30.39 in 7.0 mi NW 11.5 mph - N/A   Scattered Clouds
11:55 PM 32.9 °F 24.1 °F 29.3 °F 87% 30.40 in 7.0 mi NW 11.5 mph - N/A   Clear